Location: Lane
(33.5226°N, 79.8788°W)
Time: 20:04:38
(UTC+00:00)

Explorer 11/Cluster Stage 4 - Pass Details

Date: 30 September 2022
Orbit: 466 x 1247 km, 28.8° (Epoch: 01 December)

Event Time Altitude Azimuth Distance (km) Brightness Sun altitude
Rises 21:33:22 0° 269° (W) 3,593 11.4 18.0°
Reaches altitude 10° 21:36:24 10° 263° (W) 2,506 11.5 17.4°
Maximum altitude 21:41:51 39° 196° (SSW) 1,096 7.9 16.3°
Drops below altitude 10° 21:46:15 10° 127° (SE) 2,021 8.4 15.4°
Sets 21:48:28 0° 119° (ESE) 2,822 9.0 15.0°
